Weather History for Livingston, MT

Change the Weather History Date:

Wednesday, December 11, 2013

  Actual Average Record
Temperature  
Mean Temperature 26 °F 26 °F  
Max Temperature 32 °F 35 °F 60 °F (1993)
Min Temperature 19 °F 17 °F -24 °F (2000)
Degree Days  
Heating Degree Days 39 39  
Month to date heating degree days 622 420  
Since 1 July heating degree days 2329 2379  
Moisture  
Dew Point 9 °F    
Average Humidity 48    
Maximum Humidity 57    
Minimum Humidity 39    
Precipitation  
Precipitation T in 0.02 in 0.55 in (1956)
Month to date precipitation 0.30 0.22  
Year to date precipitation 11.60 14.51  
Sea Level Pressure  
Sea Level Pressure 30.30 in    
Wind  
Wind Speed 30 mph (SW)    
Max Wind Speed 47 mph    
Max Gust Speed 63 mph    
Visibility 8 miles    
Events Snow    
T = Trace of Precipitation, MM = Missing Value Source: NWS Daily Summary

Daily Weather History Graph

Daily Weather History Graph

Search for Another Location

Airport:

Trip Planner

Search our weather history database for the weather conditions in past years. The results will help you decide how hot, cold, wet, or windy it might be!

Date:

Astronomy

Dec. 11, 2013 Rise Set
Actual Time 7:52 AM MST 4:37 PM MST
Civil Twilight 7:18 AM MST 5:11 PM MST
Nautical Twilight 6:40 AM MST 5:49 PM MST
Astronomical Twilight 6:04 AM MST 6:25 PM MST
Moon 1:25 PM MST (12/11) 2:03 AM MST (12/11)
Length of Visible Light 9h 53m
Length of Day
8h 44m
Waxing Gibbous, 72% of the Moon is Illuminated
Dec 11
Waxing Gibbous
Dec 17
Full
Dec 25
Last Quarter
Jan 1
New
Jan 7
First Quarter

Hourly Weather History & Observations

Time (MST) Temp. Windchill Dew Point Humidity Pressure Visibility Wind Dir Wind Speed Gust Speed Precip Events Conditions
12:53 AM 19.9 °F 4.8 °F 6.1 °F 55% 30.35 in 10.0 mi West 18.4 mph - N/A   Mostly Cloudy
1:53 AM 19.9 °F 1.0 °F 6.1 °F 55% 30.34 in 10.0 mi SSW 31.1 mph 41.4 mph N/A   Clear
2:53 AM 19.9 °F 2.5 °F 5.0 °F 52% 30.37 in 10.0 mi WSW 25.3 mph 48.3 mph N/A   Clear
3:53 AM 21.0 °F 3.3 °F 5.0 °F 50% 30.34 in 10.0 mi SW 27.6 mph 41.4 mph N/A   Clear
4:53 AM 21.0 °F 3.6 °F 5.0 °F 50% 30.35 in 10.0 mi WSW 26.5 mph 43.7 mph N/A   Clear
5:53 AM 19.9 °F 5.2 °F 5.0 °F 52% 30.36 in 10.0 mi WSW 17.3 mph 27.6 mph N/A   Clear
6:53 AM 21.9 °F 3.9 °F 5.0 °F 48% 30.35 in 10.0 mi SW 29.9 mph 40.3 mph N/A   Clear
7:53 AM 21.0 °F 2.7 °F 5.0 °F 50% 30.36 in 10.0 mi SW 29.9 mph 40.3 mph N/A   Clear
8:53 AM 21.0 °F 2.2 °F 6.1 °F 53% 30.35 in 9.0 mi WSW 32.2 mph 43.7 mph N/A   Clear
9:19 AM 21.0 °F 2.4 °F 8.1 °F 57% 30.17 in 2.0 mi WSW 31.1 mph 43.7 mph 0.00 in   Clear
9:32 AM 19.9 °F -0.6 °F 9.0 °F 62% 30.17 in 1.2 mi SW 38.0 mph 49.5 mph 0.00 in   Clear
9:42 AM 21.0 °F 0.7 °F 8.1 °F 57% 30.19 in 2.0 mi SW 39.1 mph 51.8 mph 0.00 in   Partly Cloudy
9:50 AM 21.2 °F 3.0 °F 6.8 °F 54% 30.19 in 1.5 mi SW 29.9 mph 59.8 mph 0.00 in Snow Light Snow
9:53 AM 21.9 °F 5.8 °F 8.1 °F 55% 30.35 in 1.8 mi WSW 23.0 mph 59.8 mph 0.00 in Snow Light Snow
9:55 AM 21.0 °F 1.9 °F 8.1 °F 57% 30.19 in 3.0 mi SW 33.4 mph 47.2 mph 0.00 in Snow Light Snow
10:40 AM 24.1 °F 5.2 °F 9.0 °F 53% 30.18 in 1.8 mi SW 38.0 mph 52.9 mph 0.00 in   Clear
10:44 AM 24.1 °F 5.9 °F 9.0 °F 53% 30.18 in 3.0 mi SW 34.5 mph 50.6 mph 0.00 in   Clear
10:53 AM 25.0 °F 7.6 °F 9.0 °F 51% 30.34 in 4.0 mi SW 32.2 mph 49.5 mph 0.00 in   Haze
11:53 AM 27.0 °F 10.8 °F 10.0 °F 49% 30.32 in 10.0 mi SW 29.9 mph 47.2 mph N/A   Clear
12:53 PM 30.0 °F 16.0 °F 9.0 °F 41% 30.32 in 10.0 mi SW 25.3 mph 48.3 mph N/A   Clear
1:53 PM 30.9 °F 16.7 °F 10.9 °F 43% 30.29 in 10.0 mi WSW 27.6 mph 41.4 mph N/A   Clear
2:53 PM 30.9 °F 15.5 °F 10.9 °F 43% 30.30 in 10.0 mi WSW 33.4 mph 43.7 mph N/A   Clear
3:53 PM 30.0 °F 14.9 °F 10.9 °F 45% 30.30 in 10.0 mi WSW 29.9 mph 47.2 mph N/A   Clear
4:53 PM 28.9 °F 14.0 °F 10.9 °F 47% 30.31 in 10.0 mi WSW 27.6 mph 51.8 mph N/A   Clear
5:53 PM 28.9 °F 13.2 °F 10.9 °F 47% 30.31 in 10.0 mi WSW 31.1 mph 50.6 mph N/A   Clear
6:53 PM 28.9 °F 11.7 °F 10.9 °F 47% 30.30 in 10.0 mi SSW 39.1 mph 63.3 mph N/A   Clear
7:53 PM 28.0 °F 11.8 °F 10.0 °F 47% 30.34 in 10.0 mi WSW 32.2 mph 48.3 mph N/A   Clear
8:53 PM 28.0 °F 11.8 °F 10.9 °F 49% 30.31 in 10.0 mi WSW 32.2 mph 46.0 mph N/A   Clear
9:53 PM 28.9 °F 11.9 °F 12.0 °F 49% 30.32 in 10.0 mi SW 38.0 mph 55.2 mph N/A   Scattered Clouds
10:53 PM 30.0 °F 14.0 °F 12.0 °F 47% 30.31 in 10.0 mi SW 34.5 mph 55.2 mph N/A   Clear
11:53 PM 30.0 °F 13.4 °F 12.9 °F 49% 30.29 in 10.0 mi SW 38.0 mph 55.2 mph N/A   Clear